Location: Ch?enovice
(49.7164°N, 15.2160°E)
Time: 23:43:02
(UTC+00:00)

USA 267 - Pass Details

Date: 23 May 2024
Orbit: 1100 x 1107 km, 123.0° (Epoch: 21 May)

Event Time Altitude Azimuth Distance (km) Brightness Sun altitude
Rises 00:14:08 0° 59° (ENE) 3,922 7.0 -17.5°
Reaches altitude 10° 00:16:37 10° 57° (ENE) 2,963 6.3 -17.4°
Maximum altitude 00:23:06 70° 336° (NNW) 1,169 3.5 -17.0°
Drops below altitude 10° 00:29:35 10° 255° (WSW) 2,956 5.2 -16.6°
Enters shadow 00:30:21 - 254° (WSW) 3,247 5.4 -16.6°
